EST,Max TemperatureF,Mean TemperatureF,Min TemperatureF,Max Dew PointF,MeanDew PointF,Min DewpointF,Max Humidity, Mean Humidity, Min Humidity, Max Sea Level PressureIn, Mean Sea Level PressureIn, Min Sea Level PressureIn, Max VisibilityMiles, Mean VisibilityMiles, Min VisibilityMiles, Max Wind SpeedMPH, Mean Wind SpeedMPH, Max Gust SpeedMPH,PrecipitationIn, CloudCover, Events, WindDirDegrees
2012-11-1,59,46,36,39,36,33,89,64,42,29.85,29.78,29.74,10,10,10,13,5,20,0.00,3,,255
2012-11-2,63,48,33,37,34,30,92,65,36,29.97,29.88,29.82,10,10,10,13,3,21,0.00,2,,280
2012-11-3,59,44,32,38,33,29,89,68,36,30.09,30.05,29.98,10,10,10,9,2,,0.00,0,,305
2012-11-4,53,46,39,42,37,35,90,70,55,30.10,30.04,29.99,10,10,10,9,4,17,0.00,7,Rain-Thunderstorm,31
2012-11-5,54,44,33,41,34,29,89,70,41,30.14,30.08,30.01,10,10,10,13,5,17,0.00,1,,14
2012-11-6,46,39,32,34,32,28,89,71,58,30.14,30.04,29.91,10,10,6,15,7,18,0.00,5,,4
2012-11-7,46,42,37,37,35,32,89,76,61,29.94,29.89,29.86,10,10,8,10,8,,0.02,7,Rain,337
2012-11-8,60,48,36,34,28,16,89,58,18,30.10,30.01,29.94,10,10,10,9,5,17,0.00,1,,297
2012-11-9,62,45,28,37,30,23,89,62,29,30.27,30.21,30.10,10,10,9,6,2,,0.00,0,,318
2012-11-10,72,52,32,41,35,30,92,66,23,30.41,30.33,30.27,10,10,8,7,1,,0.00,0,,216
2012-11-11,73,54,36,51,42,34,93,77,38,30.51,30.45,30.40,10,8,2,7,1,,0.00,0,,187
2012-11-12,77,60,44,61,49,43,100,87,50,30.43,30.36,30.21,10,5,0,10,1,16,0.00,1,Fog,156
2012-11-13,62,52,42,61,49,38,96,90,79,30.41,30.29,30.16,10,7,0,21,7,26,0.29,7,Fog-Rain,15
2012-11-14,53,44,36,36,32,29,76,64,45,30.48,30.42,30.39,10,10,10,17,12,25,0.00,3,,17
2012-11-15,50,44,39,45,37,30,93,76,65,30.37,30.29,30.24,10,10,7,12,8,,0.10,7,Rain,357
2012-11-16,55,47,37,43,38,34,93,75,45,30.39,30.30,30.25,10,10,10,13,7,20,0.00,4,,11
2012-11-17,57,46,36,41,36,31,86,68,51,30.48,30.45,30.39,10,10,9,15,9,22,0.00,2,,15
2012-11-18,60,54,48,47,45,42,83,72,59,30.44,30.38,30.33,10,10,10,20,15,30,0.00,8,,18
2012-11-19,55,53,51,46,45,43,77,73,69,30.31,30.24,30.17,10,10,10,18,15,26,0.00,8,,4
2012-11-20,59,51,39,45,44,39,97,76,58,30.15,30.12,30.06,10,10,6,10,6,,0.00,6,,2
2012-11-21,60,48,35,41,35,30,100,78,33,30.18,30.12,30.09,10,6,0,14,2,,0.00,0,Fog,11
2012-11-22,61,48,33,35,30,24,92,61,24,30.24,30.18,30.15,10,10,10,13,7,,0.00,0,,1
2012-11-23,66,47,28,39,33,27,92,62,28,30.17,30.01,29.86,10,10,9,9,3,,0.00,0,,213
2012-11-24,52,43,33,28,22,18,54,43,32,30.14,30.00,29.87,10,10,10,15,9,22,0.00,0,,314
2012-11-25,51,38,24,24,20,17,75,55,28,30.20,30.12,30.05,10,10,10,10,3,17,0.00,0,,222
2012-11-26,66,46,27,32,27,23,89,57,20,30.21,30.16,30.10,10,10,10,7,3,,0.00,0,,197
2012-11-27,57,46,36,43,38,30,93,75,42,30.25,30.19,30.12,10,9,4,14,4,21,0.04,7,Rain,359
2012-11-28,51,40,28,37,31,27,96,76,46,30.40,30.32,30.24,10,8,4,12,5,,0.00,0,,343
2012-11-29,55,40,24,30,26,21,96,73,29,30.49,30.42,30.39,10,8,2,7,1,,0.00,0,,251
2012-11-30,61,44,27,37,31,24,92,69,34,30.43,30.37,30.32,10,9,4,8,1,,0.00,0,,211